Location: *
(37.5724°S, 58.0067°E)
Time: 03:25:37
(UTC+00:00)

ISS - Visible Passes

Search period start: 19 May 2021 00:00
Search period end: 29 May 2021 00:00
Orbit: 417 x 422 km, 51.6° (Epoch: 18 May)

Date Brightness Start Highest point End Pass type
(mag) Time Alt. Az. Time Alt. Az. Time Alt. Az.
19 May -0.7 02:10:48 10° N 02:13:21 20° NE 02:15:56 10° E visible
20 May -0.3 01:25:02 10° NE 01:26:05 11° NE 01:27:08 10° ENE visible
21 May -3.3 02:11:37 10° NW 02:15:00 65° NE 02:18:26 10° SE visible
22 May -2.1 01:25:07 14° NNW 01:27:37 35° NE 01:30:47 10° ESE visible
23 May -1.0 00:40:54 19° ENE 00:40:54 19° ENE 00:42:51 10° E visible
23 May -3.2 02:13:57 12° WNW 02:16:53 40° SW 02:20:10 10° SE visible
24 May -3.8 01:29:21 69° SW 01:29:22 69° SW 01:32:48 10° SE visible
25 May -0.9 00:44:29 16° ESE 00:44:29 16° ESE 00:45:19 10° SE visible
25 May -2.0 02:17:29 15° WSW 02:19:00 19° SSW 02:21:31 10° SSE visible
26 May -2.0 01:32:24 22° S 01:32:24 22° S 01:34:19 10° SSE visible
27 May -1.4 02:20:16 10° SSW 02:21:20 11° SSW 02:22:23 10° S visible
28 May -1.2 01:34:48 12° S 01:34:48 12° S 01:35:28 10° SSE visible
